Un réseau de détection de foudre en temps réel. - Real time lightning map
Régions/Pays: current only
Liste des stations pour "-" trié 0 par Closest
(Closest = Shortest distance to a strike position in whose calculation the station was involved)
StationVilleCommentairePaysRégionsStatutDernier signalTotalValidInvolvedUsedClosestFarthest
2069Bodø, HammarnNorwayEurope 3Running2024-07-14 07:30132824101748 km2156 km
1709Øvre Kvarv - SørfoldNorwayEurope 1Running2024-07-14 07:291381319501747 km2166 km
2627LeganésSystem Blue, TestingSpainEurope 1Running2024-07-14 07:29480715315301747 km3342 km
2888Algiers2 Ferrite Rod Antennas - 20cmAlgeriaAfrica 1Running2024-07-14 07:30101991266511746 km2582 km
2442Otter Valley, Devon, UKOtter Valley WeatherUnited KingdomEurope 1Running2024-07-14 07:302104354217101746 km1968 km
2353WhyallaMostly relying on e field ante...Australia / South AustraliaOceania 1Running2024-07-14 07:3015124892931742 km4189 km
2453Llwynhendy, Llanelli SA14 9**Delta 3 ferrite rod antenna.United KingdomJapan 1Running2024-07-14 07:2997633801741 km1968 km
2453Llwynhendy, Llanelli SA14 9**Delta 3 ferrite rod antenna.United KingdomAsia 1Running2024-07-14 07:2997636301739 km1964 km
1499NewportDetector built, antenna in tri...United KingdomEurope 1Running2024-07-14 07:307788365443501738 km1924 km
1016Paringa, South Australia300mm ferrite Hfield/200mm Efi...Australia / South AustraliaOceania 1Running2024-07-14 07:301730210524811737 km4577 km
2937AuburnUnited States / CaliforniaNorth America 1Interference2024-07-14 07:3041781412261401728 km3049 km
2069Bodø, HammarnNorwayEurope 2Running2024-07-14 07:30132824401723 km2157 km
1817KirunaSwedenEurope 2Running2024-07-14 07:281414801722 km2029 km
1368Belfast (Sydenham Red) * 30cm ...System redUnited KingdomEurope 2Running2024-07-14 07:309262208401721 km2023 km
1188TorontoCanadaSouth America 1Running2024-07-14 07:29118879978121561717 km4291 km
2449United KingdomEurope 2Running2024-07-14 07:2967654701713 km1917 km
2449United KingdomEurope 3Running2024-07-14 07:2967654501713 km1919 km
1238Port TownsendUnited States / WashingtonNorth America 1Running2024-07-14 07:296114521531713 km2160 km
2639WeavervilleBlue: 3 x 200mm FerritesUnited States / CaliforniaAsia 1Running2024-07-14 07:3032917244004392031708 km4176 km
1627Alston, Cumbria3 x 38cm 20t loopsUnited KingdomEurope 1Running2024-07-14 07:3033417012801702 km1850 km
1637Ryton2 loops + EUnited KingdomEurope 1Running2024-07-14 07:3089168928631700 km1884 km
2330Priziac (56) (Bretagne)Station Red - Ferrite - IndoorFranceEurope 2Running2024-07-14 07:3049704291501698 km2908 km
887Errol2, PerthshireRED- Dual Mobius, trafoUnited KingdomEurope 1Running2024-07-14 07:3087657430701694 km1974 km
2639WeavervilleBlue: 3 x 200mm FerritesUnited States / CaliforniaEurope 3Running2024-07-14 07:303268924236362571690 km9353 km
946Sherman300mm x 7.5mm ferrite, AS3935United States / ConnecticutSouth America 1Running2024-07-14 07:3015475117314382771690 km4508 km
2243Da NangDUT &SITViet NamAsia 1Running2024-07-14 07:30108821834441688 km2139 km
2937AuburnUnited States / CaliforniaNorth America 2Interference2024-07-14 07:3040625400782601686 km4495 km
1709Øvre Kvarv - SørfoldNorwayEurope 2Running2024-07-14 07:291381318801685 km2166 km
1709Øvre Kvarv - SørfoldNorwayEurope 3Running2024-07-14 07:291381318301685 km2165 km
2811HortaCU7BC-Blue-Ferrite Rod+LoopPortugalEurope 3Running2024-07-14 07:29207471684322351681 km7429 km
2851Penkridge, Staffordshire, UK2 x 200mm ferrite and 100mm E ...United KingdomEurope 1Running2024-07-14 07:2936935521501679 km1846 km
2330Priziac (56) (Bretagne)Station Red - Ferrite - IndoorFranceEurope 3Running2024-07-14 07:3049704290301677 km1755 km
1921Flores Island @ AzoresH-Field + E-Field System RedPortugalAfrica 1Running2024-07-14 07:2914262623951676 km3847 km
2888Algiers2 Ferrite Rod Antennas - 20cmAlgeriaEurope 1Running2024-07-14 07:3010199126631311676 km2402 km
887Errol2, PerthshireRED- Dual Mobius, trafoUnited KingdomEurope 2Running2024-07-14 07:3087857640501673 km4751 km
2432Langueux[0 -red-1A] North/South \ [1-g...FranceEurope 1Running2024-07-14 07:301865176162101670 km2001 km
2777ST HELIERLOC: IN89WE jerse...United KingdomEurope 1Running2024-07-14 07:29212421224101668 km1755 km
2271TaperooTestingAustralia / South AustraliaOceania 1Running2024-07-14 07:255737801668 km2705 km
1532Willand, Devon. UKUnited KingdomEurope 1Running2024-07-14 07:30106762331901668 km1944 km
1527CranbrookAustralia / QueenslandOceania 1Running2024-07-14 07:304022371261664 km4988 km
777Errol, PerthshireRED- Mobius-trafo, EFieldUnited KingdomEurope 1Running2024-07-14 07:302606166574801664 km1974 km
777Errol, PerthshireRED- Mobius-trafo, EFieldUnited KingdomEurope 2Running2024-07-14 07:3026081666106411660 km6769 km
2690Grants PassThree 0.9m Loops, 0.5m sense a...United States / OregonAsia 1Running2024-07-14 07:2938137988361660 km2861 km
2377Tigard, ORUnited States / OregonJapan 1Running2024-07-14 07:302939118434231261659 km3443 km
1273StourbridgeUnited KingdomEurope 2Running2024-07-14 07:2979997936501658 km1976 km
2667Para Hills WestBack To Testing StageAustralia / South AustraliaOceania 1Running2024-07-14 07:272313301657 km2248 km
1694Salisbury, South Australia3 x 200mm Ferrite + 300mm E. F...Australia / South AustraliaOceania 1Running2024-07-14 07:2978598341901657 km2694 km
2175IronbankAustralia / South AustraliaOceania 1Running2024-07-14 07:2952461911655 km4494 km
2775RiyadhSaudi ArabiaEurope 1Running2024-07-14 07:29676413949201652 km3095 km
2438Athelstone (IADELA729)2 x 200mm Ferrite, 200mm E-fie...Australia / South AustraliaOceania 1Running2024-07-14 07:309414754731651 km5743 km
1273StourbridgeUnited KingdomEurope 3Running2024-07-14 07:2978657802401650 km1713 km
1248RidgehavenRed E200mm onlyAustralia / South AustraliaOceania 1Running2024-07-14 07:303455284748171649 km5739 km
1306DundeeUnited KingdomEurope 2Running2024-07-14 07:2934420513901645 km4755 km
1306DundeeUnited KingdomEurope 3Running2024-07-14 07:2934420514201645 km4755 km
2356Roustika, CreteH+E FieldGreeceWorldRunning2024-07-14 07:3014821444941643 km9440 km
2324Alp (Cerdanya), CatalunyaEA3GBQ,System Blue, PCB 19.5SpainEurope 1Running2024-07-14 07:294182356301642 km2036 km
2953StrathalbynSHR/Hallett/CFS SBYN-02Australia / South AustraliaOceania 1Running2024-07-14 07:30255620784781639 km5791 km
1859AntalyaTurkeyAfrica 1Running2024-07-14 07:2913691941321636 km3925 km
2377Tigard, ORUnited States / OregonAsia 1Running2024-07-14 07:302928218397342171633 km4425 km
1656Stourbridge West MidlandsBlue E & H field since April 2...United KingdomEurope 2Running2024-07-14 07:291759915424301629 km1717 km
2821United KingdomEurope 1Running2024-07-14 07:308067805112401628 km1804 km
1256Cesson-SévignéFranceEurope 1Running2024-07-14 07:2983128421001627 km1921 km
2432Langueux[0 -red-1A] North/South \ [1-g...FranceEurope 3Running2024-07-14 07:301865176176001622 km8420 km
975Oloron Ste-Marie (64)RedFranceEurope 2Running2024-07-14 07:3055283774146441621 km8599 km
2857ExeterUnited KingdomEurope 2Running2024-07-14 07:3022485168914249101619 km8737 km
1532Willand, Devon. UKUnited KingdomEurope 2Running2024-07-14 07:30106762333001611 km8380 km
783BicesterUnited KingdomEurope 1Running2024-07-14 07:3074849630801611 km1795 km
975Oloron Ste-Marie (64)RedFranceEurope 1Running2024-07-14 07:3055273773122211610 km2136 km
1397SouprosseFranceEurope 1Running2024-07-14 07:2916603165422101610 km2435 km
2838Beyrie en Bearn (64-Pau)testing, system BlueFranceEurope 1Running2024-07-14 07:301577513975123341610 km2119 km
2838Beyrie en Bearn (64-Pau)testing, system BlueFranceEurope 2Running2024-07-14 07:301578413982110741609 km8568 km
1104Poursac+---systeme RED---+FranceEurope 2Running2024-07-14 07:3015058301607 km1737 km
1104Poursac+---systeme RED---+FranceEurope 3Running2024-07-14 07:3015058301605 km1734 km
798LincolnUnited States / NebraskaSouth America 1Running2024-07-14 07:30144501185333141605 km3514 km
2442Otter Valley, Devon, UKOtter Valley WeatherUnited KingdomEurope 3Running2024-07-14 07:30210488879302951604 km8513 km
2828Oakhill3 x 200mm Ferrite Rods in a Tr...United KingdomEurope 1Running2024-07-14 07:303804281662801603 km1910 km
2442Otter Valley, Devon, UKOtter Valley WeatherUnited KingdomEurope 2Running2024-07-14 07:30210478878296851602 km8513 km
2432Langueux[0 -red-1A] North/South \ [1-g...FranceEurope 2Running2024-07-14 07:301865176173801602 km8418 km
1297Cheddleton Nr.LeekSystem Red Indoor, H + E FieldUnited KingdomEurope 1Running2024-07-14 07:28927619271101601 km1924 km
2826SidmouthNorman Lockyer ObservatoryUnited KingdomEurope 2Running2024-07-14 07:3086177087264861601 km8759 km
1288ChinnorUnited KingdomEurope 1Running2024-07-14 07:2944030221901600 km1756 km
2777ST HELIERLOC: IN89WE jerse...United KingdomEurope 2Running2024-07-14 07:29212421221501599 km1911 km
2777ST HELIERLOC: IN89WE jerse...United KingdomEurope 3Running2024-07-14 07:29212421221301599 km1876 km
1442LuconSysteme REDFranceEurope 1Running2024-07-14 07:3043627517801598 km1979 km
2838Beyrie en Bearn (64-Pau)testing, system BlueFranceAsia 1Running2024-07-14 07:3015778139761364431594 km2156 km
1373RochefortUfo-ScienceFranceEurope 2Running2024-07-14 07:30136961217014001592 km3579 km
2834Bristol / BathBristol 70cm Repeater GroupUnited KingdomEurope 1Running2024-07-14 07:302296186072801592 km1897 km
2324Alp (Cerdanya), CatalunyaEA3GBQ,System Blue, PCB 19.5SpainEurope 2Running2024-07-14 07:294182355221591 km6341 km
1373RochefortUfo-ScienceFranceEurope 1Running2024-07-14 07:30136911216521101591 km1995 km
1373RochefortUfo-ScienceFranceEurope 3Running2024-07-14 07:30136961217014301591 km5907 km
732St Helens, LancsRED - Indoor, Ferrites + 10cm ...United KingdomEurope 2Running2024-07-14 07:291148272526201590 km1883 km
732St Helens, LancsRED - Indoor, Ferrites + 10cm ...United KingdomEurope 3Running2024-07-14 07:291155373035801590 km1892 km
2821United KingdomEurope 2Running2024-07-14 07:30807280564801589 km5846 km
1656Stourbridge West MidlandsBlue E & H field since April 2...United KingdomEurope 1Running2024-07-14 07:2917435152721201589 km1732 km
1442LuconSysteme REDFranceEurope 2Running2024-07-14 07:3043727619001585 km6848 km
981Pello YlirantaREDFinlandEurope 1Running2024-07-14 07:29282939301583 km2071 km
1717DerbyUnited KingdomEurope 2Running2024-07-14 07:3082375340401582 km1758 km
2827Guildford2x 20cm Ferrite H-Field AerialUnited KingdomEurope 1Running2024-07-14 07:292811519201581 km1737 km
1499NewportDetector built, antenna in tri...United KingdomEurope 3Running2024-07-14 07:307793365758421580 km8449 km
1499NewportDetector built, antenna in tri...United KingdomEurope 2Running2024-07-14 07:307793365756521579 km8448 km
Sélectionnez votre langue
češtinadanskdeutschελληνικάenglishespañolsuomeksifrançaismagyaritaliano日本語latviskinederlandsenorskмакедонскиpolskiрусскийсрпскиsvenskatürkукраїнський
Si votre langue n'est pas disponible et que vous souhaitez l'ajouter, envoyez-nous un e-mail à info ☺ blitzortung.org